Mattoon, IL

8:34 PM CDT on March 29, 2017 (GMT -0500)
Coles County Memorial

Weather History for KMTO - October, 2013

Change the Weather History Date:

Saturday, October 19, 2013

  Actual Average Record
Temperature  
Mean Temperature 48 °F 54 °F  
Max Temperature 56 °F 64 °F 87 °F (1953)
Min Temperature 40 °F 43 °F 26 °F (1972)
Degree Days  
Heating Degree Days 17 12  
Month to date heating degree days 113 171  
Since 1 July heating degree days 153 242  
Cooling Degree Days 0 0  
Month to date cooling degree days 31 15  
Year to date cooling degree days 1007 1053  
Moisture  
Dew Point 38 °F    
Average Humidity 71    
Maximum Humidity 100    
Minimum Humidity 41    
Precipitation  
Precipitation 0.25 in 0.10 in 1.15 in (1982)
Month to date precipitation 1.03 1.71  
Year to date precipitation 39.76 30.68  
Sea Level Pressure  
Sea Level Pressure 29.95 in    
Wind  
Wind Speed 9 mph (West)    
Max Wind Speed 18 mph    
Max Gust Speed 26 mph    
Visibility 9 miles    
Events Rain    
T = Trace of Precipitation, MM = Missing Value Source: NWS Daily Summary

Daily Weather History Graph

Daily Weather History Graph

Search for Another Location

Airport or City:

Trip Planner

Search our weather history database for the weather conditions in past years. The results will help you decide how hot, cold, wet, or windy it might be!

Date:

Astronomy

Oct. 19, 2013 Rise Set
Actual Time 7:07 AM CDT 6:07 PM CDT
Civil Twilight 6:40 AM CDT 6:35 PM CDT
Nautical Twilight 6:08 AM CDT 7:06 PM CDT
Astronomical Twilight 5:37 AM CDT 7:37 PM CDT
Moon 6:36 PM CDT (10/19) 7:44 AM CDT (10/19)
Length of Visible Light 11h 54m
Length of Day
11h 00m
Waxing Gibbous, 99% of the Moon is Illuminated
Oct 19
Waxing Gibbous
Oct 26
Last Quarter
Nov 3
New
Nov 9
First Quarter
Nov 17
Full

Hourly Weather History & Observations

Time (CDT) Temp. Windchill Dew Point Humidity Pressure Visibility Wind Dir Wind Speed Gust Speed Precip Events Conditions
12:53 AM 46.9 °F - 41.0 °F 80% 29.96 in 10.0 mi Calm Calm - 0.00 in Rain Light Rain
1:53 AM 45.0 °F 42.6 °F 42.1 °F 90% 29.96 in 8.0 mi NNW 4.6 mph - 0.03 in Rain Light Rain
2:53 AM 44.1 °F 39.5 °F 42.1 °F 93% 29.95 in 8.0 mi NW 8.1 mph - 0.06 in Rain Light Rain
3:53 AM 43.0 °F 38.8 °F 42.1 °F 97% 29.94 in 7.0 mi NNW 6.9 mph - 0.05 in Rain Light Rain
4:12 AM 42.8 °F 38.0 °F 42.8 °F 100% 29.93 in 6.0 mi NNW 8.1 mph - 0.02 in Rain Light Rain
4:53 AM 43.0 °F 37.7 °F 42.1 °F 97% 29.94 in 7.0 mi NW 9.2 mph - 0.05 in Rain Light Rain
5:06 AM 42.8 °F 36.6 °F 42.8 °F 100% 29.93 in 10.0 mi NW 11.5 mph - 0.00 in Rain Light Rain
5:33 AM 42.8 °F 37.0 °F 41.0 °F 93% 29.94 in 9.0 mi NW 10.4 mph - 0.01 in Rain Light Rain
5:49 AM 42.8 °F 36.2 °F 41.0 °F 93% 29.94 in 5.0 mi NW 12.7 mph - 0.02 in Rain Light Rain
5:53 AM 42.1 °F 35.7 °F 39.9 °F 92% 29.95 in 6.0 mi NW 11.5 mph - 0.02 in Rain Light Rain
6:02 AM 42.8 °F 36.2 °F 39.2 °F 87% 29.94 in 9.0 mi NW 12.7 mph - 0.01 in Rain Light Rain
6:07 AM 41.0 °F 34.3 °F 39.2 °F 93% 29.94 in 10.0 mi NW 11.5 mph - 0.01 in Rain Light Rain
6:50 AM 39.2 °F 35.0 °F 39.2 °F 100% 29.94 in 10.0 mi NNW 5.8 mph - 0.04 in Rain Light Rain
6:53 AM 41.0 °F 38.0 °F 39.0 °F 93% 29.95 in 10.0 mi NW 4.6 mph - 0.04 in Rain Light Rain
7:37 AM 41.0 °F 35.8 °F 39.2 °F 93% 29.96 in 10.0 mi NW 8.1 mph - 0.00 in   Overcast
7:44 AM 41.0 °F 35.8 °F 39.2 °F 93% 29.96 in 10.0 mi WNW 8.1 mph - 0.00 in   Overcast
7:53 AM 41.0 °F 35.8 °F 39.0 °F 93% 29.96 in 10.0 mi WNW 8.1 mph - 0.00 in   Overcast
8:53 AM 42.1 °F 37.1 °F 39.9 °F 92% 29.97 in 10.0 mi West 8.1 mph - N/A   Overcast
9:02 AM 42.8 °F 38.0 °F 39.2 °F 87% 29.96 in 10.0 mi West 8.1 mph - N/A   Overcast
9:33 AM 42.8 °F 36.6 °F 39.2 °F 87% 29.95 in 10.0 mi West 11.5 mph - N/A   Overcast
9:53 AM 44.1 °F 38.1 °F 39.9 °F 85% 29.97 in 10.0 mi West 11.5 mph 16.1 mph N/A   Mostly Cloudy
10:06 AM 44.6 °F 39.7 °F 39.2 °F 81% 29.95 in 10.0 mi West 9.2 mph - N/A   Mostly Cloudy
10:35 AM 46.4 °F 40.7 °F 39.2 °F 76% 29.96 in 10.0 mi West 12.7 mph - N/A   Scattered Clouds
10:53 AM 48.0 °F - 39.9 °F 74% 29.96 in 10.0 mi West 11.5 mph - N/A   Scattered Clouds
11:53 AM 50.0 °F - 39.9 °F 68% 29.96 in 10.0 mi West 10.4 mph 18.4 mph N/A   Partly Cloudy
12:53 PM 53.1 °F - 36.0 °F 52% 29.94 in 10.0 mi West 16.1 mph 21.9 mph N/A   Scattered Clouds
1:53 PM 53.1 °F - 32.0 °F 45% 29.93 in 10.0 mi West 13.8 mph 19.6 mph N/A   Partly Cloudy
2:53 PM 55.9 °F - 33.1 °F 42% 29.92 in 10.0 mi WSW 12.7 mph 21.9 mph N/A   Mostly Cloudy
3:53 PM 53.1 °F - 30.9 °F 43% 29.92 in 10.0 mi WSW 12.7 mph 20.7 mph N/A   Scattered Clouds
4:53 PM 54.0 °F - 30.9 °F 41% 29.92 in 10.0 mi West 10.4 mph 20.7 mph N/A   Partly Cloudy
5:53 PM 52.0 °F - 32.0 °F 47% 29.92 in 10.0 mi WSW 8.1 mph - N/A   Clear
6:53 PM 48.9 °F - 35.1 °F 59% 29.94 in 10.0 mi SSW 5.8 mph - N/A   Clear
7:53 PM 46.9 °F - 35.1 °F 63% 29.95 in 10.0 mi SSW 6.9 mph - N/A   Clear
8:53 PM 46.0 °F 41.9 °F 35.1 °F 66% 29.96 in 10.0 mi SSW 8.1 mph - N/A   Clear
9:53 PM 45.0 °F 40.6 °F 35.1 °F 68% 29.97 in 10.0 mi SSW 8.1 mph - N/A   Partly Cloudy
10:53 PM 44.1 °F 40.1 °F 35.1 °F 71% 29.97 in 10.0 mi SSW 6.9 mph - N/A   Clear
11:53 PM 44.1 °F 39.5 °F 35.1 °F 71% 29.96 in 10.0 mi SSW 8.1 mph - N/A   Partly Cloudy